{"data":{"norad_id":63376,"intl_designator":"2025-063P","name":"STARLINK-33539","alt_names":[],"object_type":"PAYLOAD","status":"ACTIVE","operator":null,"country":"US","launch_date":"2025-03-26","launch_site_code":"AFWTR","launch_vehicle":null,"mission":null,"orbit_class":"UNKNOWN","rcs_meters":null,"size_class":null,"mass_kg":null,"dimensions":null,"purposes":["comms"],"wikipedia_slug":null,"has_3d_model":false,"image_url":null,"decayed_at":null,"tle_current":{"epoch":"2026-05-25T01:58:10.235424Z","epoch_age_seconds":78336,"freshness":"FRESH","line1":"1 63376U 25063P   26145.08206291  .00014769  00000+0  50979-3 0  9996","line2":"2 63376  53.1587  67.6801 0001179  84.6108 275.5027 15.30199046 66265","mean_motion":15.30199046,"eccentricity":0.0001179,"inclination_deg":53.1587,"raan_deg":67.6801,"arg_perigee_deg":84.6108,"mean_anomaly_deg":275.5027,"bstar":0.00050979,"rev_number":6626,"period_min":94.105404376262,"perigee_km":474.40990734802,"apogee_km":476.02592843766,"semimajor_km":6853.3549178928,"source":"CELESTRAK","updated_at":"2026-05-25T13:38:19.964417Z"}}}